Weather History for Lakeville, MN

Change the Weather History Date:

Saturday, November 3, 2012

  Actual Average Record
Temperature  
Mean Temperature 37 °F -  
Max Temperature 41 °F 45 °F 73 °F (2008)
Min Temperature 33 °F 30 °F 10 °F (1951)
Degree Days  
Heating Degree Days 28    
Moisture  
Dew Point 28 °F    
Average Humidity 71    
Maximum Humidity 81    
Minimum Humidity 61    
Precipitation  
Precipitation 0.00 in - - ()
Sea Level Pressure  
Sea Level Pressure 30.19 in    
Wind  
Wind Speed 1 mph (East)    
Max Wind Speed 6 mph    
Max Gust Speed -    
Visibility 10 miles    
Events      
Averages and records for this station are not official NWS values.
T = Trace of Precipitation, MM = Missing Value Source: NWS Daily Summary

Daily Weather History Graph

Daily Weather History Graph

Search for Another Location

Airport:

Trip Planner

Search our weather history database for the weather conditions in past years. The results will help you decide how hot, cold, wet, or windy it might be!

Date:

Astronomy

Nov. 03, 2012 Rise Set
Actual Time 7:53 AM CDT 5:58 PM CDT
Civil Twilight 7:23 AM CDT 6:28 PM CDT
Nautical Twilight 6:48 AM CDT 7:03 PM CDT
Astronomical Twilight 6:14 AM CDT 7:37 PM CDT
Moon 9:36 PM CDT (11/3) 12:02 PM CDT (11/3)
Length of Visible Light 11h 05m
Length of Day
10h 04m
Waning Gibbous, 80% of the Moon is Illuminated
Nov 3
Waning Gibbous
Nov 6
Last Quarter
Nov 13
New
Nov 20
First Quarter
Nov 28
Full

Hourly Weather History & Observations

Time (CDT) Temp. Windchill Dew Point Humidity Pressure Visibility Wind Dir Wind Speed Gust Speed Precip Events Conditions
12:11 AM 35.6 °F - 26.6 °F 70% 30.16 in 10.0 mi Calm Calm - N/A   Unknown
12:32 AM 35.6 °F - 26.6 °F 70% 30.15 in 10.0 mi Calm Calm - N/A   Unknown
12:51 AM 35.6 °F - 26.6 °F 70% 30.16 in 10.0 mi Calm Calm - N/A   Unknown
1:11 AM 35.6 °F - 26.6 °F 70% 30.16 in 10.0 mi Calm Calm - N/A   Unknown
1:32 AM 35.6 °F - 26.6 °F 70% 30.16 in 10.0 mi Calm Calm - N/A   Unknown
1:51 AM 35.6 °F - 26.6 °F 70% 30.16 in 10.0 mi Calm Calm - N/A   Unknown
2:11 AM 35.6 °F - 26.6 °F 70% 30.15 in 10.0 mi Calm Calm - N/A   Unknown
2:32 AM 35.6 °F - 26.6 °F 70% 30.15 in 10.0 mi Calm Calm - N/A   Unknown
3:11 AM 35.6 °F - 26.6 °F 70% 30.15 in 10.0 mi Calm Calm - N/A   Unknown
3:32 AM 33.8 °F - 26.6 °F 75% 30.15 in 10.0 mi Calm Calm - N/A   Unknown
3:52 AM 35.6 °F - 26.6 °F 70% 30.15 in 10.0 mi Calm Calm - N/A   Unknown
4:11 AM 33.8 °F - 26.6 °F 75% 30.15 in 10.0 mi Calm Calm - N/A   Unknown
4:32 AM 33.8 °F - 28.4 °F 81% 30.15 in 10.0 mi Calm Calm - N/A   Unknown
4:52 AM 33.8 °F - 28.4 °F 81% 30.16 in 10.0 mi Calm Calm - N/A   Unknown
5:11 AM 33.8 °F - 28.4 °F 81% 30.16 in 10.0 mi Calm Calm - N/A   Unknown
5:32 AM 33.8 °F 30.8 °F 28.4 °F 81% 30.16 in 10.0 mi East 3.5 mph - N/A   Unknown
5:52 AM 33.8 °F - 28.4 °F 81% 30.17 in 10.0 mi Calm Calm - N/A   Unknown
6:11 AM 33.8 °F - 28.4 °F 81% 30.17 in 10.0 mi Calm Calm - N/A   Unknown
6:32 AM 33.8 °F - 28.4 °F 81% 30.17 in 10.0 mi Calm Calm - N/A   Unknown
6:51 AM 33.8 °F - 26.6 °F 75% 30.18 in 10.0 mi Calm Calm - N/A   Unknown
7:11 AM 33.8 °F - 28.4 °F 81% 30.17 in 10.0 mi Calm Calm - N/A   Unknown
7:32 AM 33.8 °F - 26.6 °F 75% 30.18 in 10.0 mi Calm Calm - N/A   Unknown
7:51 AM 33.8 °F - 26.6 °F 75% 30.18 in 10.0 mi Calm Calm - N/A   Unknown
8:11 AM 33.8 °F - 28.4 °F 81% 30.18 in 10.0 mi Calm Calm - N/A   Unknown
8:32 AM 35.6 °F - 26.6 °F 70% 30.19 in 10.0 mi Calm Calm - N/A   Unknown
8:51 AM 35.6 °F 32.8 °F 26.6 °F 70% 30.19 in 10.0 mi ENE 3.5 mph - N/A   Overcast
9:11 AM 35.6 °F 32.8 °F 26.6 °F 70% 30.20 in 10.0 mi ENE 3.5 mph - N/A   Unknown
9:32 AM 35.6 °F 30.7 °F 26.6 °F 70% 30.20 in 10.0 mi East 5.8 mph - N/A   Unknown
9:51 AM 35.6 °F 32.8 °F 26.6 °F 70% 30.21 in 10.0 mi East 3.5 mph - N/A   Unknown
10:11 AM 35.6 °F 32.8 °F 28.4 °F 75% 30.21 in 10.0 mi East 3.5 mph - N/A   Unknown
10:32 AM 35.6 °F 32.8 °F 28.4 °F 75% 30.21 in 10.0 mi East 3.5 mph - N/A   Overcast
10:51 AM 37.4 °F 32.8 °F 28.4 °F 70% 30.21 in 10.0 mi East 5.8 mph - N/A   Overcast
11:11 AM 37.4 °F 34.9 °F 28.4 °F 70% 30.21 in 10.0 mi East 3.5 mph - N/A   Overcast
11:32 AM 37.4 °F 33.8 °F 28.4 °F 70% 30.21 in 10.0 mi ESE 4.6 mph - N/A   Unknown
11:51 AM 37.4 °F 34.9 °F 28.4 °F 70% 30.21 in 10.0 mi SE 3.5 mph - N/A   Overcast
12:11 PM 39.2 °F - 28.4 °F 65% 30.21 in 10.0 mi Calm Calm - N/A   Unknown
12:32 PM 39.2 °F - 28.4 °F 65% 30.21 in 10.0 mi Calm Calm - N/A   Unknown
12:51 PM 39.2 °F - 28.4 °F 65% 30.21 in 10.0 mi Calm Calm - N/A   Overcast
1:11 PM 39.2 °F - 28.4 °F 65% 30.20 in 10.0 mi Calm Calm - N/A   Unknown
1:32 PM 39.2 °F - 28.4 °F 65% 30.20 in 10.0 mi Calm Calm - N/A   Unknown
1:51 PM 39.2 °F - 28.4 °F 65% 30.20 in 10.0 mi Calm Calm - N/A   Unknown
2:11 PM 39.2 °F - 28.4 °F 65% 30.19 in 10.0 mi Calm Calm - N/A   Overcast
2:32 PM 39.2 °F - 28.4 °F 65% 30.20 in 10.0 mi Calm Calm - N/A   Overcast
2:51 PM 39.2 °F - 28.4 °F 65% 30.20 in 10.0 mi Calm Calm - N/A   Overcast
3:12 PM 39.2 °F - 28.4 °F 65% 30.20 in 10.0 mi Calm Calm - N/A   Unknown
3:32 PM 41.0 °F - 28.4 °F 61% 30.20 in 10.0 mi Calm Calm - N/A   Unknown
3:51 PM 41.0 °F - 28.4 °F 61% 30.19 in 10.0 mi Calm Calm - N/A   Overcast
4:12 PM 41.0 °F - 28.4 °F 61% 30.19 in 10.0 mi Calm Calm - N/A   Unknown
4:32 PM 41.0 °F - 28.4 °F 61% 30.19 in 10.0 mi Calm Calm - N/A   Unknown
4:51 PM 39.2 °F - 28.4 °F 65% 30.19 in 10.0 mi Calm Calm - N/A   Unknown
5:12 PM 39.2 °F - 28.4 °F 65% 30.19 in 10.0 mi Calm Calm - N/A   Unknown
5:32 PM 39.2 °F - 28.4 °F 65% 30.19 in 10.0 mi Calm Calm - N/A   Unknown
5:51 PM 39.2 °F - 28.4 °F 65% 30.18 in 10.0 mi Calm Calm - N/A   Unknown
6:12 PM 39.2 °F - 28.4 °F 65% 30.18 in 10.0 mi Calm Calm - N/A   Unknown
6:32 PM 37.4 °F - 28.4 °F 70% 30.19 in 10.0 mi Calm Calm - N/A   Unknown
6:51 PM 37.4 °F - 28.4 °F 70% 30.20 in 10.0 mi Calm Calm - N/A   Unknown
7:12 PM 39.2 °F - 28.4 °F 65% 30.20 in 10.0 mi Calm Calm - N/A   Unknown
7:32 PM 39.2 °F - 28.4 °F 65% 30.20 in 10.0 mi Calm Calm - N/A   Unknown
7:51 PM 39.2 °F - 28.4 °F 65% 30.20 in 10.0 mi Calm Calm - N/A   Unknown
8:12 PM 37.4 °F - 30.2 °F 75% 30.20 in 10.0 mi Calm Calm - N/A   Unknown
8:32 PM 37.4 °F - 30.2 °F 75% 30.20 in 10.0 mi Calm Calm - N/A   Unknown
8:51 PM 37.4 °F - 30.2 °F 75% 30.20 in 10.0 mi Calm Calm - N/A   Unknown
9:12 PM 37.4 °F - 30.2 °F 75% 30.20 in 10.0 mi Calm Calm - N/A   Unknown
9:32 PM 37.4 °F - 30.2 °F 75% 30.20 in 10.0 mi Calm Calm - N/A   Unknown
9:51 PM 37.4 °F - 30.2 °F 75% 30.21 in 10.0 mi Calm Calm - N/A   Unknown
10:11 PM 37.4 °F - 30.2 °F 75% 30.21 in 10.0 mi Calm Calm - N/A   Unknown
10:32 PM 37.4 °F - 28.4 °F 70% 30.21 in 10.0 mi Calm Calm - N/A   Unknown
10:51 PM 37.4 °F - 30.2 °F 75% 30.21 in 10.0 mi Calm Calm - N/A   Unknown
11:11 PM 37.4 °F - 30.2 °F 75% 30.21 in 10.0 mi Calm Calm - N/A   Unknown
11:32 PM 37.4 °F - 30.2 °F 75% 30.22 in 10.0 mi Calm Calm - N/A   Unknown
11:51 PM 37.4 °F 34.9 °F 30.2 °F 75% 30.22 in 10.0 mi WSW 3.5 mph - N/A   Unknown